Location: Baix
(44.7118°N, 4.7648°E)
Time: 21:56:32
(UTC+00:00)

Courier 1B Rocket - All Passes

Search period start: 05 December 2020 00:00
Search period end: 15 December 2020 00:00
Orbit: 920 x 1202 km, 28.3° (Epoch: 05 December)

Date Brightness Start Highest point End Pass type
(mag) Time Alt. Az. Time Alt. Az. Time Alt. Az.
05 Dec - 01:38:01 10° SSE 01:39:38 11° SSE 01:41:16 10° SE visible
05 Dec - 03:26:41 10° SSW 03:31:59 20° S 03:37:23 10° SE visible
05 Dec - 05:18:54 10° SW 05:24:35 22° S 05:30:17 10° SE visible
05 Dec - 07:13:04 10° SW 07:17:05 15° SSW 07:21:04 10° SSE daylight
06 Dec - 02:26:28 10° SSW 02:31:07 18° SSE 02:35:53 10° SE visible
06 Dec - 04:17:57 10° SW 04:23:39 23° S 04:29:26 10° SE visible
06 Dec - 06:11:18 10° SW 06:16:14 18° SSW 06:21:08 10° SSE visible
07 Dec - 01:26:46 10° S 01:30:19 14° SSE 01:33:57 10° SE visible
07 Dec - 03:17:15 10° SW 03:22:45 22° S 03:28:21 10° SE visible
07 Dec - 05:09:58 10° SW 05:15:20 21° S 05:20:46 10° SE visible
07 Dec - 07:05:34 10° SW 07:07:46 11° SSW 07:09:57 10° S daylight
08 Dec - 00:28:53 10° SSE 00:29:36 10° SSE 00:30:19 10° SSE night (unlit)
08 Dec - 02:16:49 10° SSW 02:21:52 20° S 02:27:05 10° SE visible
08 Dec - 04:08:54 10° SW 04:14:25 22° S 04:20:05 10° SE visible
08 Dec - 06:02:58 10° SW 06:06:57 15° SSW 06:10:56 10° SSE visible
09 Dec - 01:16:43 10° SSW 01:21:03 17° SSE 01:25:33 10° SE night (unlit)
09 Dec - 03:08:05 10° SW 03:13:32 22° S 03:19:10 10° SE visible
09 Dec - 05:01:18 10° SW 05:06:05 18° SSW 05:10:56 10° SSE visible
10 Dec - 00:17:10 10° S 00:20:18 13° SSE 00:23:31 10° SE night (unlit)
10 Dec - 02:07:28 10° SW 02:12:39 21° S 02:18:02 10° SE visible
10 Dec - 04:00:04 10° SW 04:05:12 20° S 04:10:29 10° SE visible
10 Dec - 05:55:41 10° SW 05:57:38 11° SSW 05:59:35 10° S visible
11 Dec - 01:07:08 10° SSW 01:11:50 19° S 01:16:44 10° SE night (unlit)
11 Dec - 02:59:05 10° SW 03:04:19 21° S 03:09:45 10° SE visible
11 Dec - 04:53:06 10° SW 04:56:49 14° SSW 05:00:35 10° S visible
12 Dec - 00:07:07 10° SSW 00:11:04 16° SSE 00:15:09 10° SE night (unlit)
12 Dec - 01:58:20 10° SW 02:03:28 21° S 02:08:48 10° SE visible
12 Dec - 03:51:31 10° SW 03:55:59 17° SSW 04:00:33 10° SSE visible
12 Dec - 23:07:44 10° S 23:10:22 12° SSE 23:13:03 10° SE night (unlit)
13 Dec - 00:57:50 10° SW 01:02:39 20° S 01:07:40 10° SE night (unlit)
13 Dec - 02:50:20 10° SW 02:55:08 19° S 03:00:06 10° SSE visible
13 Dec - 04:46:24 10° SSW 04:47:32 10° SSW 04:48:41 10° SSW visible
13 Dec - 23:57:33 10° SSW 00:01:53 18° S 00:06:23 10° SE night (unlit)
14 Dec - 01:49:26 10° SW 01:54:18 20° S 01:59:22 10° SE visible
14 Dec - 03:43:29 10° SW 03:46:44 13° SSW 03:50:04 10° S visible
14 Dec - 22:57:38 10° SSW 23:01:10 15° SSE 23:04:49 10° SE night (unlit)
